Location: Sternwarte auf dem Internationalen Platz Vogelsang IP
(50.5721°N, 6.4398°E)
Time: 04:38:54
(UTC+01:00)

Transit 2A Rocket - Pass Details

Date: 15 December 2025
Orbit: 581 x 903 km, 66.7° (Epoch: 13 January)

Event Time Altitude Azimuth Distance (km) Brightness Sun altitude
Rises 10:04:16 0° 243° (WSW) 3,360 8.3 9.5°
Reaches altitude 10° 10:06:48 10° 251° (WSW) 2,471 7.5 9.7°
Maximum altitude 10:12:14 41° 321° (NW) 1,263 5.8 10.2°
Drops below altitude 10° 10:17:56 10° 31° (NNE) 2,587 7.5 10.6°
Sets 10:20:39 0° 38° (NE) 3,535 8.2 10.9°
